www.pogodaiklimat.ru

Погода и климат >> Архив погоды >> Аргентина >> Чамикаль


ПОГОДА в Чамикале

  • Прогноз погоды в Чамикале
  • Монитор погоды в Чамикале

АРХИВ ПОГОДЫ в Чамикале

Время (UTC), дата Ветер
(напр.,м/с)
 
Видим.   Явления Облачность Т
(С)
Тd
(С)
f
(%)
Тe
(С)
Тes
(С)
Комфортность P
(гПа)
Po
(гПа)
Тmin
(С)
Tmax
(С)
R
(мм)
R24
(мм)
S
(см)
18 15.04 В 5 20 км 8/8 1050 м
[Sc]
+23.7 +16.8 65 +27 +28 жарко 1016.8 964.2
21 15.04 штиль 0 20 км 8/0
[Ac As]
+22.9 +14.5 59 +27 +27 душно 1016.7 964.2
00 16.04 СВ 3 20 км 8/0
[Ac As]
+19.5 +13.6 69 +21 +21 комфорт 1019.1 966.2 +19.4 +26.0
03 16.04 штиль 0 20 км 9/0
[Ac trans]
+17.0 +12.8 76 +17 +17 1021.9 969.0
06 16.04 штиль 0 20 км 9/9 1350 м
[Sc]
+16.5 +13.2 81 +16 +16 1020.8 967.7
09 16.04 ЮВ 1 20 км 10/10 1350 м
[Sc]
+16.8 +13.2 79 +18 +18 1019.9 966.9
12 16.04 ЮВ 1 20 км 9/9 1050 м
[Sc]
+15.2 +12.7 85 +16 +16 1021.3 967.8 +14.7 +19.5
15 16.04 ЮВ 2 20 км 9/9 450 м
[Sc]
+16.4 +12.9 80 +17 +18 1020.5 966.9
18 16.04 ЮВ 1 20 км 9/9 600 м
[Sc]
+18.6 +13.5 72 +20 +22 1016.6 963.3
21 16.04 В 2 20 км 3/3 1050 м
[Sc]
+21.6 +14.3 63 +25 +25 комфорт 1012.7 960.0
00 17.04 ЮВ 1 20 км 1/1 1050 м
[Cu hum]
+16.9 +13.6 81 +18 +18 1014.7 961.3 +14.7 +22.0
03 17.04 ЮВ 2 20 км 9/9 1050 м
[Frnb]
+17.0 +14.3 84 +17 +17 1014.1 960.8
06 17.04 ЮВ 2 20 км 9/9 1050 м
[Frnb]
+16.4 +14.4 88 +16 +16 1013.5 960.4
09 17.04 ЮВ 2 20 км 9/9 1050 м
[Frnb]
+15.8 +14.1 90 +16 +16 1012.7 959.8
12 17.04 штиль 0 20 км 9/9 1050 м
[Sc]
+16.0 +14.3 90 +16 +16 1013.9 960.5 +15.4 +17.5
15 17.04 штиль 0 20 км 10/10 900 м
[Sc]
+17.0 +15.3 90 +17 +17 1013.5 960.2
18 17.04 штиль 0 20 км 5/5 1050 м
[Sc]
+18.8 +15.5 81 +20 +26 1011.1 958.1
21 17.04 штиль 0 20 км 3/0
[Ac As]
+20.2 +15.8 76 +23 +24 комфорт 1009.1 956.4
00 18.04 штиль 0 20 км 3/0
[Ac As]
+17.5 +15.0 85 +17 +17 1010.7 957.6 +15.9 +21.5
03 18.04 ЮВ 2 20 км 9/9 1050 м
[Sc]
+19.0 +16.1 83 +21 +21 комфорт 1011.9 958.9
06 18.04 ЮВ 1 20 км ясно +17.4 +16.1 92 +18 +18 1012.6 959.6
09 18.04 Ю 1 20 км ясно +16.2 +15.5 96 +17 +17 1010.4 957.6
12 18.04 ЮВ 1 15 км дымка 9/9 1000 м
[Sc]
+17.9 +16.8 93 +19 +19 1011.7 958.8 +15.6 +19.9
15 18.04 ЮВ 1 20 км 9/9 1000 м
[Sc]
+21.3 +17.7 80 +25 +27 комфорт 1011.1 958.6
18 18.04 ЮВ 3 20 км 8/8 1200 м
[Sc]
+24.8 +17.7 65 +29 +31 душно 1007.0 954.9
21 18.04 ЮВ 1 20 км 9/9 1200 м
[Sc]
+24.3 +17.1 64 +28 +28 душно 1006.3 954.1
00 19.04 ЮВ 1 20 км 8/8 1200 м
[Sc]
+21.9 +18.0 79 +27 +27 душно 1008.7 956.4 +17.9 +25.7
03 19.04 штиль 0 20 км 6/0
[Ci]
+19.0 +17.7 92 +20 +20 1009.7 957.3
06 19.04 штиль 0 20 км 5/5 1050 м
[Sc]
+19.2 +18.4 95 +21 +21 комфорт 1009.0 956.9
09 19.04 штиль 0 20 км 5/5 1200 м
[Sc]
+19.2 +18.6 96 +21 +21 комфорт 1009.0 956.9
12 19.04 штиль 0 20 км 8/3 1200 м
[Sc Ci]
+19.8 +18.6 93 +22 +23 комфорт 1010.7 958.2 +17.9 +22.0
15 19.04 штиль 0 20 км 6/4 1200 м
[Sc Ac trans]
+24.8 +17.7 65 +29 +36 душно 1010.6 958.5
18 19.04 штиль 0 20 км 6/3 1200 м
[Sc Ci fib]
+28.0 +17.6 53 +32 +41 душно 1008.0 956.2
21 19.04 штиль 0 20 км 5/5 1200 м
[Cu hum]
+27.8 +17.3 53 +32 +32 душно 1006.5 954.8
03 20.04 штиль 0 20 км 9/0
[Ac trans]
+21.0 +17.0 78 +25 +25 комфорт 1009.9 958.0
06 20.04 ЮЗ 2 20 км 9/0
[Ac trans]
+21.0 +16.2 74 +25 +25 комфорт 1009.6 957.8
09 20.04 Ю 1 20 км 9/0
[Ac trans]
+20.5 +17.0 80 +25 +25 комфорт 1010.4 958.6
12 20.04 штиль 0 20 км 5/0
[Ac und]
+20.8 +17.8 83 +24 +25 комфорт 1011.4 958.9 +19.4 +22.5
15 20.04 штиль 0 20 км 8/0
[Ac As]
+25.9 +19.9 70 +32 +38 очень
душно
1011.6 959.6
18 20.04 СВ 3 20 км 9/0
[Ac As]
+28.3 +18.6 56 +33 +36 очень
душно
1010.1 958.4
21 20.04 штиль 0 20 км 9/0
[Ac As]
+25.8 +18.6 64 +31 +31 очень
душно
1008.7 956.9
00 21.04 штиль 0 20 км 9/0
[Ac As]
+23.5 +18.1 72 +28 +28 душно 1010.6 958.4 +20.4 +28.7
03 21.04 штиль 0 20 км 9/9 1200 м
[Sc]
+20.6 +15.0 70 +23 +23 комфорт 1010.8 958.8
06 21.04 штиль 0 20 км 10/10 1200 м
[Sc]
+20.0 +10.3 54 +21 +21 комфорт 1012.3 960.4
09 21.04 штиль 0 20 км 10/10 1200 м
[Sc]
+19.6 +9.4 52 +20 +20 1011.7 959.6
12 21.04 штиль 0 20 км осадки на расстоянии 10/10 1050 м
[Sc As op]
+18.2 +13.0 72 +18 +18 1014.2 961.6 +17.1 +23.5
15 21.04 штиль 0 15 км дождь 10/10 1050 м
[Sc As op]
+17.3 +16.7 96 +17 +17 1016.5 963.4
18 21.04 Ю 1 15 км осадки на расстоянии 10/10 1050 м
[Sc As op]
+16.7 +13.8 83 +18 +18 1014.9 961.8 7
21 21.04 Ю 1 15 км осадки на расстоянии 10/8 1050 м
[Sc As op]
+16.6 +14.9 90 +17 +17 1014.3 961.3
00 22.04 ЮЗ 2 15 км в посл. час дождь 10/10 1050 м
[Sc As op]
+15.3 +13.8 91 +15 +15 1016.6 963.2 +14.7 +19.3 3
03 22.04 штиль 0 20 км 10/10 1050 м
[Frnb]
+15.0 +14.0 94 +15 +15 1016.9 963.4
06 22.04 штиль 0 10 км морось 10/10 750 м
[Frnb]
+14.0 +13.7 98 +14 +14 1017.4 963.7 5
09 22.04 штиль 0 20 км {морось} 10/10 900 м
[Frnb]
+12.6 +11.9 95 +12 +12 1017.5 963.7
12 22.04 штиль 0 20 км {морось} 10/10 900 м
[Sc]
+12.1 +10.2 88 +12 +12 1019.5 965.4 +11.4 +16.0 0.0
15 22.04 штиль 0 20 км 10/10 900 м
[Sc]
+12.8 +11.0 89 +12 +12 1019.4 965.3

 

Местоположение метеостанции Чамикаль (Аргентина): широта -30.36 долгота -66.28 высота над уровнем моря 461 м.

В архиве по умолчанию представлена погода в Чамикале за последнюю неделю. Архивные данные за месяц целиком и за предыдущие месяцы, начиная с января 2011 года, Вы можете получить, выбрав интересующий диапазон дат из раскрывающегося списка и нажав кнопку "Ввод!".


*Определитесь, кто Вы:
робот инопланетянин человек

Внимание! Время в таблицах - всемирное. Для получения местного времени необходимо прибавить поправку, которая равна -3 ч.

Смотрите также архив погоды в соседних городах и на ближайших метеорологических станциях:

Погода в Ла-Риохе (Аргентина) (120 км)
Погода в Сан-Фернандо-дель-Валье-де-Катамарке (Аргентина) (202 км)
Погода в Вилла Долорес (Аргентина) (208 км)
Погода в Кордове (Аргентина) (224 км)
Погода в Сан-Хуане (Аргентина) (234 км)
Погода в Вилла де Мария дель Рио Секо (Аргентина) (255 км)
Погода в Пиларе (Аргентина) (271 км)
Погода в Сан-Луисе (Аргентина) (323 км)
Погода в Сантьяго-дель-Эстеро (Аргентина) (347 км)
Погода в Рио-Куарто (Аргентина) (358 км)

Пояснения к столбцам:

Ветер - указаны скорость ветра в м/с - средняя за 10 мин, порывы в срок и между сроками (в фигурных скобках) и направление, откуда дует ветер: С - северный, СВ - северо-восточный, В - восточный, ЮВ - юго-восточный, Ю - южный, ЮЗ - юго-западный, З - западный, СЗ - северо-западный.
Видимость - горизонтальная дальность видимости в метрах или километрах. При видимости от 1 до 10 км при отсутствии осадков обычно наблюдается дымка, при ухудшении видимости до 1 км и менее - туман. В сухую погоду видимость может ухудшаться дымом, пылью или мглою.
Явления - указаны атмосферные явления, наблюдавшиеся в срок или в последний час перед сроком; фигурными скобками обозначены явления, наблюдавшиеся между сроками (за 1-3 часа до срока); квадратными скобками обозначены град или гололедные отложения с указанием их диаметра в мм.
Облачность - указаны через наклонную черту общая и нижняя облачность в баллах и высота нижней границы облаков в метрах; квадратными скобками обозначены формы облаков: Ci - перистые, Cs - перисто-слоистые, Cc - перисто-кучевые, Ac - высококучевые, As - высокослоистые, Sc - слоисто-кучевые, Ns - слоисто-дождевые, Cu - кучевые, Cb - кучево-дождевые. Подробнее классификацию облаков см. в Атласе облаков (PDF).
T - Температура воздуха - температура, измеренная на высоте 2 м над землей.
Td - Температура точки росы - температура, при понижении до которой содержащийся в воздухе водяной пар достигнет насыщения.
f - Относительная влажность воздуха - влажноcть воздуха, измеренная на высоте 2 м над землей.
Te - Эффективная температура - температура, которую ощущает одетый по сезону человек в тени. Характеристика душности погоды. При расчете учитывается влияние влажности воздуха и скорости ветра на теплоощущения человека.
Tes - Эффективная температура на солнце - температура, которую ощущает человек, с поправкой на солнечный нагрев. Характеристика знойности погоды. Зависит от высоты солнца над горизонтом, облачности и скорости ветра. Ночью, в пасмурную погоду, а также при ветре 12 м/с и более поправка равна нулю.
P - Атмосферное давление - приведенное к уровню моря атмосферное давление.
Po - Атмосферное давление - измеренное на уровне метеостанции атмосферное давление.
Tmin - Минимальная температура - минимум температуры воздуха на высоте 2 м над землей.
Tmax - Максимальная температура - максимум температуры воздуха на высоте 2 м над землей.
R - Количество осадков - Количество выпавших осадков за период времени, мм. При наведении курсора мыши на число - период времени, за который выпало указанное количество осадков.
R24 - Количество осадков - Количество выпавших осадков за 24 часа, мм.
S - Снежный покров - Высота снежного покрова, см. При наведении курсора мыши на число - состояние снежного покрова и степень покрытия местности в баллах.